Lapse_Rate
6.6 6.4 6.3 6.3 6.4 6.7 7.2 7.5 7.6 7.5 7.6 7.8 7.8 7.7 8.1 8.4 8.4 8.4 8.3 8.3 8.4 8.4 8.2 7.8 7.7 7.5 7.2 6.8 6.4 6.2 6.1 6.0 5.9 6.0 6.1 6.0 6.1 6.1 5.9 5.8 5.7 5.7 5.7 5.7 5.9 5.7 5.6 5.9 5.7
6.8 6.6 6.2 6.3 6.5 6.6 7.3 7.7 7.8 7.8 8.0 8.2 8.3 8.3 8.3 8.5 8.5 8.5 8.4 8.5 8.4 8.3 8.3 8.1 7.5 7.4 7.1 6.6 6.3 6.3 6.3 6.2 6.1 6.2 6.5 6.5 6.4 6.4 6.3 6.3 6.2 5.8 5.6 5.5 5.7 5.8 5.6 5.6 5.6
6.8 6.7 6.5 6.4 6.5 6.8 7.5 7.9 8.0 8.0 8.1 8.4 8.5 8.4 8.2 8.3 8.2 8.3 8.4 8.4 8.4 8.3 8.5 8.1 7.7 7.2 7.0 6.7 6.6 6.7 6.6 6.6 6.6 6.6 6.5 6.5 6.7 6.6 6.6 6.6 6.5 6.3 6.2 5.8 5.5 5.7 5.6 5.4 5.4
6.9 6.8 6.7 6.8 7.2 7.6 7.8 7.9 8.1 8.2 8.2 8.3 8.4 8.4 8.4 8.3 8.3 8.2 8.3 8.4 8.3 8.3 8.5 8.1 7.6 7.2 6.9 7.1 7.1 7.0 6.8 6.6 6.7 6.7 6.6 6.6 6.6 6.7 6.6 6.4 6.4 6.3 6.3 6.0 5.8 5.8 5.4 5.2 5.1
7.1 7.0 7.0 7.4 7.7 7.9 7.9 8.1 8.0 8.4 8.2 8.2 8.3 8.4 8.4 8.3 8.5 8.5 8.4 8.4 8.5 8.5 8.6 8.4 7.9 7.5 7.4 7.3 7.3 7.2 7.0 6.8 6.6 6.6 6.5 6.3 6.4 6.4 6.2 6.3 6.3 6.3 6.1 5.9 5.7 5.8 5.4 5.0 4.9
7.2 7.4 7.3 7.3 8.0 8.1 8.4 8.3 8.4 8.6 8.4 8.4 8.3 8.3 8.4 8.6 8.4 8.5 8.5 8.5 8.5 8.5 8.6 8.4 8.2 7.8 7.5 7.4 7.5 7.4 7.2 6.9 6.6 6.5 6.5 6.4 6.5 6.3 6.1 5.9 5.9 6.0 6.0 5.9 5.8 5.4 5.0 4.9 4.8
7.4 7.6 7.8 7.8 8.1 8.1 8.7 8.5 8.6 8.5 8.6 8.5 8.5 8.4 8.6 8.8 8.4 8.4 8.3 8.2 8.4 8.7 8.8 8.6 8.5 7.9 7.7 7.7 7.5 7.4 7.3 7.0 6.8 6.7 6.6 6.5 6.5 6.4 6.2 5.9 5.9 5.8 5.8 5.8 5.7 5.3 5.0 4.8 4.8
7.3 7.2 7.5 7.4 7.8 8.2 9.1 8.8 8.6 8.2 8.3 8.5 8.5 8.3 8.5 8.5 8.4 8.4 8.3 8.1 8.5 8.7 8.9 8.9 8.5 8.0 7.9 7.8 7.5 7.5 7.6 7.3 7.1 7.0 6.9 6.6 6.5 6.3 6.2 6.1 6.0 5.9 5.8 5.7 5.5 5.4 5.2 4.9 5.1
7.9 6.7 7.1 7.5 8.1 8.8 8.6 8.6 8.2 8.0 8.2 8.4 8.2 8.6 8.4 8.4 8.3 8.3 8.4 8.5 8.6 8.8 9.0 9.0 8.4 8.2 8.1 7.9 7.8 7.5 7.5 7.4 7.3 7.1 6.8 6.7 6.6 6.5 6.3 6.0 5.9 5.9 5.8 5.7 5.7 5.7 5.9 5.7 5.5
7.6 6.8 7.1 8.4 8.9 8.6 8.5 8.5 8.2 8.1 8.1 8.4 8.7 8.9 8.5 8.3 8.3 8.5 8.5 8.5 8.7 8.9 9.0 8.9 8.4 8.3 8.2 8.0 8.0 7.9 7.7 7.4 7.2 7.0 6.8 6.9 6.6 6.5 6.1 5.8 5.8 5.7 5.6 5.7 5.7 5.7 5.7 5.7 5.8
7.6 6.9 8.4 8.5 8.8 8.5 8.3 8.1 8.0 7.9 8.2 8.7 8.9 9.1 8.8 8.4 8.4 8.7 8.6 8.7 8.6 8.7 8.9 8.8 8.5 8.3 8.0 7.9 8.0 7.8 7.6 7.5 7.2 7.0 6.9 6.9 6.6 6.3 6.0 5.7 5.8 5.6 5.6 5.6 5.5 5.5 5.6 5.6 5.4
7.9 7.6 8.1 8.5 8.6 8.1 8.3 7.8 7.7 7.8 8.4 8.7 9.1 8.8 8.4 8.1 8.2 8.6 8.5 8.7 8.6 8.5 8.9 8.8 8.6 8.4 8.0 7.9 8.0 7.8 7.6 7.5 7.2 7.0 6.9 6.8 6.6 6.3 6.2 5.9 5.9 5.6 5.5 5.4 5.4 5.4 5.2 5.1 5.3
7.5 7.6 8.5 8.3 8.3 8.5 8.3 7.7 7.2 8.2 8.7 8.9 9.1 8.6 8.4 7.9 7.8 8.3 8.4 8.6 8.5 8.4 8.9 8.8 8.5 8.5 8.5 8.4 8.0 7.8 7.5 7.3 7.0 6.9 6.8 6.8 6.6 6.3 6.0 5.8 5.8 5.7 5.7 5.5 5.1 4.9 4.8 4.6 5.0
7.8 7.4 8.0 8.0 7.9 8.4 8.0 8.1 6.6 8.3 8.9 8.9 8.8 8.4 8.3 7.9 7.8 7.7 8.3 8.6 8.2 8.5 8.5 8.6 8.7 8.7 8.7 8.1 7.9 7.6 7.3 7.1 6.9 6.8 7.0 6.7 6.5 6.2 5.9 5.8 5.7 5.6 5.4 5.2 5.1 4.9 4.9 4.8 4.9
7.7 7.4 7.2 7.5 7.9 7.8 8.2 7.4 7.5 8.7 8.6 8.6 8.5 8.2 8.0 7.7 7.7 7.5 8.2 8.3 8.2 8.0 8.4 8.6 9.1 8.7 8.6 8.3 7.9 7.6 7.2 7.0 6.8 6.9 7.0 6.6 6.4 5.9 5.7 5.5 5.5 5.5 5.4 5.1 5.0 5.0 4.9 4.9 5.2
7.3 7.3 6.6 7.0 8.0 8.1 7.9 6.9 8.1 8.6 8.5 8.8 8.7 8.2 7.7 7.7 7.7 7.9 8.6 8.2 8.1 7.9 8.5 8.6 8.7 8.8 8.6 8.4 7.9 7.4 7.3 7.0 6.9 6.9 6.7 6.6 6.4 5.9 5.6 5.4 5.3 5.6 5.5 5.3 5.2 5.1 5.0 5.4 5.6
6.5 6.5 6.5 6.7 7.1 7.9 8.0 7.4 8.0 8.4 8.5 8.7 8.8 8.2 8.0 8.1 8.0 8.4 8.4 8.1 8.0 8.1 8.4 8.3 8.6 8.6 8.5 8.3 7.8 7.3 7.2 7.0 6.9 6.9 6.6 6.5 6.3 5.8 5.5 5.5 5.5 5.7 5.6 5.4 5.4 5.2 5.3 5.6 5.9
6.1 6.0 6.0 6.4 6.9 8.2 8.2 7.8 8.0 8.2 8.4 8.7 8.8 8.3 8.3 8.5 8.5 8.6 8.5 8.2 8.3 8.5 8.6 8.6 8.9 8.7 8.6 8.4 7.8 7.4 7.1 6.9 6.8 6.7 6.4 6.5 6.3 5.9 5.6 5.7 5.7 5.6 5.6 5.5 5.4 5.5 5.8 5.7 5.8
6.8 6.7 6.7 7.2 7.4 7.9 8.2 7.9 7.9 8.3 8.4 8.6 8.6 8.3 8.6 8.6 8.9 8.8 8.4 8.4 8.6 8.7 8.7 8.9 8.8 8.6 8.7 8.4 7.7 7.2 7.0 6.7 6.7 6.5 6.3 6.4 6.3 6.2 5.9 5.6 5.6 5.4 5.2 5.5 5.6 5.8 5.9 6.0 6.0
6.4 6.3 6.5 6.5 7.3 7.4 7.4 7.4 7.6 8.0 8.2 8.4 8.3 8.4 8.6 8.6 8.9 8.6 8.4 8.3 8.6 8.8 8.8 9.1 8.7 8.7 8.6 8.1 7.5 7.1 6.7 6.6 6.6 6.2 6.2 6.3 6.2 6.1 5.9 5.8 5.7 5.4 5.4 5.7 5.9 6.1 6.4 6.4 6.2
6.0 6.1 6.7 7.0 7.2 7.0 7.1 6.8 6.9 7.5 7.8 8.1 8.4 8.3 8.6 8.8 8.8 8.5 8.3 8.4 8.5 8.6 9.1 8.7 8.7 8.6 8.3 7.7 7.1 6.9 6.6 6.6 6.4 6.2 6.2 6.2 6.1 6.1 5.9 5.8 5.8 5.8 5.9 6.0 6.2 6.5 6.5 6.3 6.1
6.2 6.9 6.6 6.8 6.9 7.0 7.5 6.8 6.5 6.8 7.6 7.9 8.3 8.4 8.8 8.7 8.4 8.5 8.4 8.3 8.4 8.5 8.5 8.3 8.5 8.4 7.8 7.2 6.9 6.7 6.5 6.5 6.2 6.2 6.1 6.0 6.1 5.9 5.7 5.8 6.0 6.1 6.1 6.0 6.2 6.3 6.4 6.6 6.5
6.6 6.6 6.5 6.8 6.9 6.7 6.6 6.5 5.9 6.4 7.8 8.3 8.5 8.7 8.9 8.4 8.5 8.1 8.2 8.3 8.3 8.3 8.2 8.3 8.3 7.9 7.3 7.0 6.8 6.4 6.5 6.3 6.2 6.1 6.0 5.9 5.9 5.8 5.8 6.0 6.2 6.3 6.0 5.9 6.2 6.3 6.3 6.4 6.4
6.3 6.6 6.4 6.6 7.0 6.6 6.4 5.9 5.8 7.0 8.2 8.2 8.5 8.5 8.3 8.4 8.1 8.2 8.3 8.3 8.3 8.2 8.1 7.9 7.7 7.3 7.1 6.8 6.5 6.4 6.2 6.2 6.1 6.1 5.9 5.9 5.9 6.0 5.9 6.1 6.3 6.2 6.1 6.0 6.2 6.2 6.1 6.2 6.2
6.1 6.4 7.0 6.9 7.0 6.2 7.0 6.5 6.8 7.8 8.2 8.2 8.3 8.3 8.3 8.2 8.4 8.2 8.3 8.4 8.1 8.0 7.9 7.6 7.3 7.1 7.0 6.6 6.5 6.4 6.2 6.1 6.0 5.9 5.8 5.9 6.0 6.0 6.0 6.0 6.1 6.1 6.1 5.9 5.9 5.9 6.1 6.0 6.1
6.1 6.5 7.0 7.0 7.3 7.9 6.5 6.6 7.3 8.6 8.8 8.5 8.5 8.5 8.4 8.2 8.2 8.3 8.3 8.0 7.8 7.7 7.5 7.3 7.2 7.1 6.6 6.7 6.5 6.3 6.1 6.1 6.0 5.9 5.9 6.0 5.9 5.8 5.9 5.8 6.0 6.0 6.0 5.9 5.8 5.7 5.8 6.0 6.1
6.1 5.8 6.9 7.2 6.8 7.3 6.8 6.9 7.5 8.1 8.4 8.6 8.7 8.7 8.7 8.6 8.2 8.3 8.0 7.9 7.6 7.4 7.2 7.2 7.2 6.8 6.8 6.7 6.5 6.4 6.1 6.0 5.8 5.8 5.9 6.0 6.1 5.9 5.9 5.8 5.8 6.0 5.8 5.8 5.7 5.8 5.8 6.1 6.0
6.6 6.7 6.4 6.7 6.9 6.6 7.1 6.7 7.4 8.1 8.8 8.8 8.8 8.7 8.9 8.6 8.3 8.3 8.2 7.7 7.5 7.2 7.0 7.2 7.1 6.8 7.0 6.7 6.4 6.3 6.1 5.9 5.8 5.7 5.7 6.1 5.9 5.9 5.9 5.8 5.7 5.8 5.7 5.8 5.8 5.6 5.8 6.0 6.0
5.8 6.0 6.4 6.8 6.9 7.2 6.7 7.2 7.7 8.7 8.6 8.9 8.9 8.8 8.5 8.5 8.3 8.2 8.0 7.4 7.2 7.1 7.2 7.3 6.9 7.0 7.0 6.5 6.2 6.2 6.0 6.0 5.7 5.6 5.6 5.9 5.9 5.9 5.9 5.7 5.9 6.0 5.9 5.8 5.8 5.7 5.9 5.9 5.8
6.4 6.7 6.6 6.9 6.1 6.8 6.9 7.4 7.8 8.3 8.5 9.0 9.1 8.8 8.4 8.3 8.1 8.2 7.6 7.3 7.4 7.1 7.2 7.2 6.9 7.0 6.7 6.2 6.1 6.1 6.1 5.9 5.6 5.6 5.6 5.9 6.0 5.9 5.9 5.8 5.9 6.0 6.0 6.0 6.0 6.0 6.0 5.8 5.7
Wind_Speed
15 11 2 2 2 1 3 4 3 5 2 1 3 4 5 2 4 7 1 12 9 20 24 28 26 25 24 23 21 19 18 17 16 14 12 11 10 9 9 8 7 7 7 6 6 6 6 7 8
13 5 2 2 3 3 3 4 7 3 8 13 8 8 6 8 3 6 2 14 12 19 21 28 29 28 26 23 22 20 19 18 16 15 14 13 13 13 13 12 11 10 10 10 9 7 8 8 9
10 3 2 2 3 6 3 7 3 5 11 4 3 3 2 3 4 3 3 17 13 18 22 25 30 29 26 24 22 21 21 20 18 17 16 15 15 15 14 15 14 13 13 13 13 11 10 10 9
5 3 3 4 11 8 6 4 5 12 2 3 2 7 3 4 1 2 7 16 14 17 19 24 28 26 25 24 23 22 21 20 19 18 17 16 16 16 15 16 17 16 15 15 15 13 13 12 11
2 1 3 4 9 7 10 15 8 11 7 6 2 3 4 2 2 2 8 14 16 17 18 21 25 26 26 24 23 22 21 20 20 19 18 18 17 16 16 17 17 18 16 17 16 15 14 14 13
3 1 3 9 11 9 9 13 8 9 8 4 3 3 5 2 5 6 10 16 15 16 18 19 26 25 24 23 22 21 20 19 19 18 17 17 15 14 14 15 16 16 17 17 16 15 15 15 13
4 4 5 8 12 11 7 6 7 6 4 1 1 4 3 5 6 5 9 14 14 15 15 16 22 24 22 22 21 20 19 17 16 16 16 14 10 9 10 11 13 15 16 16 16 16 17 16 14
2 3 4 7 9 10 1 3 3 3 4 3 3 2 8 9 2 5 8 12 11 12 15 15 18 22 21 20 19 19 18 16 14 14 12 10 8 7 8 9 11 12 13 16 19 19 18 19 16
3 6 13 15 12 9 2 5 2 5 8 6 3 13 13 5 1 5 8 11 11 11 13 14 15 16 18 18 18 17 17 14 12 12 12 9 8 7 8 9 10 11 12 13 14 17 17 19 18
9 12 18 16 15 13 7 8 8 8 15 21 17 15 11 8 7 11 13 16 17 17 17 15 14 14 15 14 15 16 14 13 13 12 10 8 8 8 9 11 11 11 12 13 14 15 11 16 15
10 20 26 21 19 9 19 18 13 16 23 24 19 21 23 18 12 13 17 19 24 18 14 16 14 13 13 10 11 10 11 10 10 11 10 8 7 8 9 9 8 8 9 10 9 9 10 9 11
16 23 24 27 18 14 22 20 19 20 31 24 24 21 20 22 17 15 18 20 20 19 19 16 15 12 12 10 7 9 6 9 7 9 10 8 6 7 7 7 8 7 8 7 7 6 7 8 10
22 22 21 21 21 21 20 22 19 26 31 23 23 21 20 20 20 17 19 19 18 19 17 16 16 15 13 11 8 7 7 6 8 8 10 9 7 7 7 7 8 7 8 7 6 5 4 5 7
12 22 24 19 18 24 21 26 18 26 27 21 21 22 22 20 21 15 15 19 17 17 17 17 17 14 12 11 10 8 6 7 8 7 10 11 11 7 7 7 7 7 8 7 6 4 4 5 5
16 17 14 15 16 15 11 24 19 31 21 20 24 21 21 20 18 17 17 17 19 16 14 16 17 16 15 13 10 7 6 7 5 8 10 11 12 10 8 8 7 7 8 9 7 4 4 5 5
10 10 17 13 19 11 14 28 19 19 13 17 18 17 17 19 19 17 16 15 13 14 17 15 13 15 14 11 9 6 5 5 6 8 10 12 13 13 9 8 7 8 6 5 4 5 5 5 6
10 14 15 10 9 4 15 21 16 10 8 17 19 19 19 19 18 17 14 14 13 15 16 15 16 17 15 11 7 6 5 5 6 8 9 10 12 13 9 7 5 7 5 4 5 5 6 6 6
19 15 16 17 9 15 22 25 17 18 12 19 18 18 18 20 23 15 11 9 12 16 17 18 16 17 14 9 6 4 3 5 6 6 6 9 9 10 8 5 6 5 5 5 5 7 6 6 6
20 22 28 21 13 15 18 18 13 17 18 21 19 19 20 19 19 6 3 9 13 15 17 18 17 15 11 8 6 4 5 4 5 5 6 6 7 8 7 6 5 5 6 6 6 6 7 6 5
23 24 21 14 10 12 16 20 15 18 23 21 19 19 20 17 15 3 4 7 13 16 16 18 17 16 11 8 5 3 3 3 3 2 3 4 4 5 5 6 5 6 5 6 7 7 6 5 6
26 26 24 20 15 15 16 23 20 20 12 16 17 19 19 16 13 4 6 8 9 14 17 17 16 15 11 9 6 3 2 3 3 2 1 2 3 4 6 7 5 5 5 5 6 8 8 6 6
26 24 20 19 11 15 3 16 18 20 22 21 21 16 16 12 8 5 9 11 12 13 15 16 14 13 11 9 7 6 4 3 1 0 0 1 1 2 4 5 5 5 4 5 5 6 6 6 6
17 13 16 17 17 17 17 11 10 13 21 24 20 18 10 5 3 7 10 12 14 15 15 13 13 12 11 9 6 6 4 2 2 2 2 2 2 2 3 4 5 5 5 5 5 7 7 5 5
13 8 10 6 7 12 15 11 13 15 19 16 13 9 2 2 5 8 10 13 15 15 14 13 13 11 10 8 7 6 3 3 3 2 2 2 2 2 3 4 4 4 4 5 6 7 7 5 3
20 14 6 7 7 9 14 12 18 15 19 18 18 6 1 4 9 11 15 16 17 17 15 13 13 11 10 9 7 5 3 3 2 1 2 2 3 3 4 4 3 3 4 5 6 7 7 6 4
25 20 8 7 6 9 5 9 7 17 18 22 16 9 4 8 9 10 14 17 18 17 15 14 13 11 10 8 7 5 5 3 2 1 2 2 3 4 5 4 3 3 3 4 5 5 5 5 4
19 19 15 5 1 5 4 6 10 17 14 11 10 5 7 10 11 13 15 17 17 15 15 14 13 10 10 8 7 5 5 4 2 4 3 3 5 5 5 3 2 3 3 3 4 4 5 5 5
18 19 10 9 9 9 6 5 8 6 9 8 8 8 9 11 13 14 16 16 14 14 13 12 11 11 9 7 6 5 5 4 4 4 5 5 6 5 4 3 2 2 3 3 4 4 4 4 3
11 18 7 10 6 5 3 5 9 14 8 7 2 9 12 12 13 15 15 14 14 12 12 12 10 9 8 7 6 6 6 5 5 5 5 5 6 5 3 3 2 2 4 4 4 3 3 3 3
20 21 19 9 10 10 2 5 1 8 7 7 2 8 13 12 14 15 15 15 14 13 13 11 9 9 8 7 6 6 6 6 5 5 5 5 6 5 4 3 3 3 5 5 4 4 4 5 5
Wind_Direction
146 148 174 145 206 263 234 234 253 261 264 173 152 197 247 277 199 289 17 193 163 161 171 173 173 177 183 184 183 184 186 188 189 193 199 205 211 218 235 248 259 274 279 277 278 270 257 251 254
152 150 211 123 218 217 205 225 220 241 316 313 233 214 225 268 243 273 216 176 174 165 171 178 179 182 186 188 186 187 190 195 196 201 206 214 223 231 238 238 240 246 263 269 264 258 260 254 250
165 210 220 219 197 224 227 204 218 301 304 262 276 234 210 220 214 254 195 169 164 172 174 182 183 183 186 189 190 190 193 197 199 208 216 221 227 233 238 241 244 248 250 259 260 258 255 248 249
173 179 113 242 233 239 234 205 268 314 337 170 240 273 264 257 235 272 156 163 165 175 180 186 186 185 188 191 193 194 195 197 202 211 218 224 232 237 242 247 249 251 254 257 262 271 275 254 242
151 158 229 249 253 257 248 264 276 286 300 293 222 265 258 238 276 174 168 172 176 181 185 188 188 189 190 192 194 197 199 200 205 211 218 228 238 248 249 251 253 258 262 259 259 266 269 275 265
139 176 228 251 255 261 265 261 257 245 267 284 206 260 262 311 250 190 177 188 188 181 188 193 190 193 194 194 194 199 202 205 210 215 223 236 247 244 253 260 266 268 260 260 262 264 271 270 272
208 182 239 267 278 285 254 249 225 224 222 229 220 242 275 299 265 199 198 196 195 185 186 192 192 197 197 196 193 197 204 208 213 220 228 240 245 254 266 271 273 272 271 270 265 262 266 270 269
188 221 223 237 266 272 317 223 137 213 283 356 213 244 308 321 348 180 208 207 208 194 193 193 192 195 200 201 197 195 200 206 213 221 218 222 231 251 263 273 267 275 272 269 264 260 262 263 265
138 228 238 237 226 251 253 256 39 327 290 263 261 290 300 305 163 195 209 209 209 208 203 196 193 194 197 201 201 196 201 203 207 212 212 213 237 254 265 273 265 268 268 265 262 261 262 261 259
199 227 233 235 239 251 274 291 305 289 292 278 282 278 267 277 262 263 224 214 215 205 205 200 195 195 193 196 197 200 205 206 210 212 211 221 234 245 260 266 261 267 265 268 271 276 287 252 245
206 231 234 257 249 263 281 278 287 289 288 281 292 296 302 298 272 253 242 226 215 216 205 201 194 191 192 193 191 194 200 203 208 209 213 222 232 240 252 262 264 265 263 265 267 272 273 271 244
237 230 239 250 259 263 264 288 281 284 268 281 287 287 284 285 283 243 236 231 226 211 213 194 189 181 189 191 186 195 198 204 212 213 219 229 239 240 248 254 255 253 257 260 262 263 273 266 247
229 242 236 248 266 263 272 266 270 284 281 287 277 277 271 275 273 255 244 245 227 223 208 196 183 184 182 182 182 195 201 210 218 220 229 233 241 241 248 247 250 254 254 251 257 249 265 262 245
233 239 245 247 255 264 269 272 269 264 268 285 280 273 276 272 268 272 245 240 223 218 204 194 189 179 172 181 183 192 204 212 219 231 238 227 236 239 249 243 243 246 238 249 252 249 263 259 248
243 256 243 241 241 253 286 271 246 259 279 271 273 275 276 276 276 257 247 236 223 215 190 189 183 175 175 179 185 194 202 213 223 237 235 231 234 238 239 240 241 248 221 230 226 242 240 248 237
223 230 244 235 236 248 217 266 264 271 269 275 274 279 277 275 275 272 254 238 224 202 189 175 182 173 173 174 182 190 194 217 236 243 244 241 239 237 236 237 238 235 230 229 231 228 235 240 235
213 241 226 247 207 218 200 268 262 273 289 283 279 281 279 280 276 264 259 244 205 183 172 173 176 171 166 169 177 183 202 225 242 249 249 248 240 234 228 232 236 211 226 232 236 223 236 230 225
227 236 239 243 229 227 249 256 276 288 297 278 282 282 277 274 271 288 266 227 180 171 167 166 171 162 158 155 157 173 218 242 246 248 246 243 233 221 216 222 225 213 217 218 217 228 216 232 225
248 251 249 252 232 243 256 275 283 295 291 284 286 285 278 274 284 307 261 186 171 171 167 161 154 158 154 154 160 190 221 233 229 236 243 233 222 213 215 220 212 205 216 221 217 226 225 216 199
231 245 246 251 252 262 279 278 287 285 279 280 280 284 277 282 281 260 168 184 179 171 166 155 154 156 161 158 154 155 189 217 246 241 242 223 219 216 215 207 207 202 210 209 212 213 215 215 198
225 233 238 246 267 271 283 281 278 277 273 277 278 272 276 270 282 221 165 172 183 168 161 153 151 156 157 147 136 136 187 221 223 208 200 216 216 209 216 202 195 194 208 218 212 213 208 196 203
232 225 247 250 254 262 318 288 279 283 284 281 283 275 268 268 244 167 153 168 169 161 153 149 148 151 153 154 161 176 206 227 181 200 151 152 169 174 198 195 190 205 205 210 205 204 208 215 192
239 226 225 236 245 272 258 266 280 286 281 275 274 268 279 316 204 161 157 158 156 155 150 148 145 151 153 160 167 179 193 184 155 157 156 141 136 153 169 180 187 194 204 203 198 195 213 221 202
194 201 206 223 246 252 258 248 278 268 257 274 265 253 7 21 114 134 145 147 149 151 148 146 150 154 151 158 171 184 189 162 168 176 188 180 163 135 184 158 165 183 203 206 196 201 208 226 245
196 185 207 224 217 249 243 234 246 261 250 259 262 281 38 130 136 150 152 150 150 154 151 152 157 154 157 168 177 180 160 153 167 176 200 185 158 181 159 155 166 197 209 190 187 192 197 213 235
190 187 177 205 217 250 148 217 253 245 260 244 249 278 169 151 147 152 153 151 153 155 155 160 160 153 168 174 173 165 141 140 133 145 104 127 157 161 139 141 154 122 174 192 172 183 187 191 216
183 202 203 254 283 277 171 261 278 247 246 235 238 218 176 160 154 150 156 157 157 159 164 162 157 161 167 166 165 155 147 142 141 100 114 145 140 138 133 129 124 145 131 150 165 163 177 195 212
201 187 185 206 221 236 238 280 257 313 243 205 193 193 170 156 150 158 164 161 160 163 161 156 161 167 164 170 168 160 154 156 135 122 142 147 136 136 135 132 117 81 91 98 127 133 167 186 184
178 187 187 190 215 207 279 246 213 252 263 270 346 153 157 156 155 164 166 162 158 159 161 158 162 158 161 170 167 162 159 163 141 135 146 148 140 135 147 151 153 123 103 96 100 117 147 167 144
199 187 183 185 193 220 271 256 239 246 294 309 249 141 140 160 159 165 167 159 159 164 163 161 158 168 164 163 167 167 159 163 152 148 151 158 145 142 158 166 154 140 113 97 98 86 122 128 119